Regional Weather Roundup
Issued by NWS

Home | Current Version | Previous Version | Graphics & Text | Print | Product List | Glossary On
Versions: 1 2 3 4 5 6 7 8 9 10 11 12 13 14 15 16 17 18 19 20 21 22 23 24 25 26 27 28 29 30 31 32 33 34 35 36 37 38 39 40 41 42 43 44 45 46 47 48 49 50
000
ASUS43 KLMK 221210
RWRKY
KENTUCKY REGIONAL WEATHER ROUNDUP
NATIONAL WEATHER SERVICE LOUISVILLE KY
700 AM EST WED NOV 22 2017

NOTE "FAIR" INDICATES FEW OR NO CLOUDS BELOW 12,000 FEET
WITH NO SIGNIFICANT WEATHER AND/OR OBSTRUCTIONS TO VISIBILITY.

KYZ001>023-026-027-061>063-070>075-221300-
WESTERN AND SOUTH CENTRAL KENTUCKY

CITY           SKY/WX    TMP DP  RH WIND       PRES   REMARKS
PADUCAH        CLOUDY    29  20  69 N6        30.34R WCI  23
HENDERSON      CLEAR     28  23  81 NW7       30.34R WCI  21
OWENSBORO      CLEAR     29  24  82 N6        30.32R WCI  23
HOPKINSVILLE   CLEAR     29  22  76 N6        30.29R WCI  23
BOWLING GREEN  CLEAR     31  25  78 N5        30.27R WCI  26
GLASGOW        CLEAR     31  26  82 N7        30.25R WCI  24
$$

KYZ024-025-028>034-038-045-046-053-221300-
NORTH CENTRAL KENTUCKY

CITY           SKY/WX    TMP DP  RH WIND       PRES   REMARKS
LOUISVILLE/SDF CLEAR     31  23  72 N10       30.28R WCI  22
LOUISVILLE/LOU CLEAR     30  24  78 N5        30.28R WCI  25
FORT KNOX      CLEAR     27  22  80 NW3       30.25R
$$

KYZ035>037-039>044-047>052-055>060-089>105-221300-
NORTHEAST KENTUCKY

CITY           SKY/WX    TMP DP  RH WIND       PRES   REMARKS
LEXINGTON      CLEAR     28  23  81 NW7       30.24R WCI  21
COVINGTON      CLEAR     28  25  88 NW7       30.22S WCI  21
FRANKFORT      CLEAR     28  22  78 CALM      30.24R
$$

KYZ054-064>069-076>088-106>120-221300-
SOUTHEAST KENTUCKY

CITY           SKY/WX    TMP DP  RH WIND       PRES   REMARKS
JACKSON        CLOUDY    37  31  78 N9        30.16R WCI  30
LONDON         CLOUDY    35  29  78 N10       30.19R WCI  27
SOMERSET       CLEAR     32  27  80 N9        30.23R WCI  24
MIDDLESBORO    CLEAR     42  33  70 N8        30.14R
MONTICELLO     CLOUDY    37  30  75 N18       30.23R WCI  27
$$




USA.gov is the U.S. government's official web portal to all federal, state and local government web resources and services.